TimeMDT,TemperatureF,Dew PointF,Humidity,Sea Level PressureIn,VisibilityMPH,Wind Direction,Wind SpeedMPH,Gust SpeedMPH,PrecipitationIn,Events,Conditions,WindDirDegrees,DateUTC
12:53 AM,41.0,14.0,33,29.82,10.0,SSE,6.9,-,N/A,,Clear,150,2013-03-27 06:53:00
1:53 AM,33.1,16.0,50,29.86,10.0,ENE,5.8,-,N/A,,Clear,60,2013-03-27 07:53:00
2:53 AM,37.0,14.0,39,29.85,10.0,NE,3.5,-,N/A,,Clear,50,2013-03-27 08:53:00
3:53 AM,33.1,16.0,50,29.85,10.0,South,5.8,-,N/A,,Clear,170,2013-03-27 09:53:00
4:53 AM,28.0,15.1,58,29.87,10.0,North,3.5,-,N/A,,Clear,10,2013-03-27 10:53:00
5:53 AM,30.0,17.1,59,29.88,10.0,SSE,3.5,-,N/A,,Clear,150,2013-03-27 11:53:00
6:53 AM,32.0,17.1,54,29.89,10.0,South,3.5,-,N/A,,Clear,180,2013-03-27 12:53:00
7:53 AM,28.9,18.0,64,29.94,10.0,Calm,Calm,-,N/A,,Clear,0,2013-03-27 13:53:00
8:53 AM,37.0,18.0,46,29.94,10.0,Calm,Calm,-,N/A,,Clear,0,2013-03-27 14:53:00
9:53 AM,45.0,19.9,37,29.93,10.0,Calm,Calm,-,N/A,,Clear,0,2013-03-27 15:53:00
10:53 AM,52.0,17.1,25,29.92,10.0,Calm,Calm,-,N/A,,Clear,0,2013-03-27 16:53:00
11:53 AM,57.9,19.9,23,29.88,10.0,SW,5.8,-,N/A,,Clear,220,2013-03-27 17:53:00
12:53 PM,64.0,18.0,17,29.86,10.0,SSW,15.0,24.2,N/A,,Clear,210,2013-03-27 18:53:00
1:53 PM,64.0,19.0,18,29.88,10.0,SSW,16.1,27.6,N/A,,Clear,210,2013-03-27 19:53:00
2:53 PM,64.9,17.1,16,29.86,10.0,SSW,13.8,21.9,N/A,,Clear,210,2013-03-27 20:53:00
3:53 PM,63.0,16.0,16,29.86,10.0,SW,12.7,24.2,N/A,,Clear,230,2013-03-27 21:53:00
4:53 PM,61.0,18.0,19,29.87,10.0,SW,16.1,25.3,N/A,,Clear,230,2013-03-27 22:53:00
5:53 PM,60.1,18.0,20,29.88,10.0,SW,16.1,23.0,N/A,,Clear,220,2013-03-27 23:53:00
6:53 PM,57.9,18.0,21,29.89,10.0,SW,10.4,-,N/A,,Clear,220,2013-03-28 00:53:00
7:53 PM,54.0,19.9,26,29.93,10.0,SSW,6.9,-,N/A,,Clear,210,2013-03-28 01:53:00
8:53 PM,50.0,21.0,32,29.93,10.0,WSW,4.6,-,N/A,,Clear,240,2013-03-28 02:53:00
9:53 PM,48.0,21.0,34,29.93,10.0,SW,4.6,-,N/A,,Clear,220,2013-03-28 03:53:00
10:53 PM,46.0,23.0,40,29.93,10.0,SE,6.9,-,N/A,,Clear,130,2013-03-28 04:53:00
11:53 PM,43.0,23.0,45,29.92,10.0,SE,6.9,-,N/A,,Clear,140,2013-03-28 05:53:00